Regional Weather Roundup
Issued by NWS Austin/San Antonio, TX

Home | Current Version | Previous Version | Text Only | Print | Product List | Glossary On
Versions: 1 2 3 4 5 6 7 8 9 10 11 12 13 14 15 16 17 18 19 20 21 22 23 24 25 26 27 28 29 30 31 32 33 34 35 36 37 38 39 40 41 42 43 44 45 46 47 48 49 50
000
ASUS44 KEWX 131410
RWREWX
SOUTH TEXAS REGIONAL WEATHER ROUNDUP
NATIONAL WEATHER SERVICE AUSTIN/SAN ANTONIO TX
900 AM CDT SUN OCT 13 2019

NOTE: "FAIR" INDICATED FEW OR NO CLOUDS BELOW 12,000 FEET WITH NO
SIGNIFICANT WEATHER AND/OR OBSTRUCTIONS TO VISIBILITY.

* - THESE STATIONS ARE NOT NWS OR FAA STATIONS...AND ARE NOT SUBJECT
    TO NWS AND FAA QUALITY CONTROL.

TXZ171-172-183>190-131500-
TEXAS HILL COUNTRY AND EDWARDS PLATEAU

CITY           SKY/WX    TMP DP  RH WIND       PRES   REMARKS
JUNCTION       SUNNY     54  46  74 CALM      30.05R
*LLANO         MOSUNNY   57  46  67 CALM      30.08S
BURNET         CLOUDY    55  44  66 S6        30.06R
*HORSESHOE BAY CLOUDY    57  50  77 S3        30.05S
*KERRVILLE     SUNNY     53  49  83 CALM      30.05S
*FREDERICKSBRG MOSUNNY   55  42  60 CALM      30.04S
*ROCKSPRINGS   SUNNY     57  32  38 S9        30.10R
*BOERNE        PTSUNNY   59  36  41 CALM      30.07R
*CASTROVILLE   PTSUNNY   64  32  29 CALM      30.07R
HONDO          PTSUNNY   63  32  31 CALM      30.05R
*UVALDE        SUNNY     61  35  37 NE5       30.05S
DEL RIO        SUNNY     61  36  39 E5        30.03R
LAUGHLIN AFB   CLOUDY    59  39  48 E5        30.04R
SPOFFORD       PTSUNNY   61  32  33 SE5       29.99R
*EAGLE PASS    SUNNY     63  36  36 CALM      30.04R
CARRIZO SPRGS  SUNNY     64  37  36 E5        30.03R
*FAITH RANCH   PTSUNNY   66  36  32 CALM      30.03R
$$

TXZ173-191>194-202-209-217>225-228-131500-
CENTRAL AND SOUTH CENTRAL TEXAS

CITY           SKY/WX    TMP DP  RH WIND       PRES   REMARKS
GEORGETOWN     CLOUDY    58  51  78 CALM      30.08R
AUSTIN/BERGSTM CLOUDY    61  42  49 SE3       30.06R
AUSTIN/MABRY   CLOUDY    61  43  51 CALM      30.07R
*AUSTIN/EXEC   CLOUDY    57  46  67 CALM      30.07R
*LAGO VISTA    CLOUDY    59  45  61 S3        30.05S
SAN MARCOS     CLOUDY    62  39  42 CALM      30.07R
NEW BRAUNFELS  CLOUDY    62  39  42 E3        30.04S
RANDOLPH AFB   CLOUDY    64  38  38 NE3       30.05R
SEGUIN         CLOUDY    61  41  48 NE3       30.10R
KELLY FIELD    CLOUDY    65  37  35 E3        30.03R
SAN ANTONIO    PTSUNNY   63  36  36 E5        30.05S
STINSON FIELD  CLOUDY    63  39  41 E3        30.04R
PLEASANTON     CLOUDY    63  37  39 CALM      30.05S
*LA GRANGE     PTSUNNY   61  49  63 NE3       30.04S
*GIDDINGS      MOSUNNY   62  50  65 CALM      30.07S
*GONZALES      CLOUDY    62  47  57 N3        30.05R
$$

TXZ163>164-176>182-195>201-210>213-226-227-235-131500-
SOUTHEAST TEXAS

CITY           SKY/WX    TMP DP  RH WIND       PRES   REMARKS
COLLEGE STN    SUNNY     61  48  62 E5        30.06S
*BRYAN         RAIN      59  53  79 NE3       30.08S
*CALDWELL      MOSUNNY   58  48  70 NE3       30.08R
*CROCKETT      PTSUNNY   55  52  88 CALM      30.11S
*BRENHAM       CLOUDY    60  51  71 CALM      30.08R
HUNTSVILLE     CLOUDY    57  50  77 CALM      30.08R
CONROE         CLOUDY    59  51  75 CALM      30.08R
HOUSTON BUSH   PTSUNNY   63  49  60 NW6       30.06R
HOUSTON HOBBY  FAIR      65  50  58 VRB3      30.05R
*HOUSTON SW AP CLOUDY    64  53  68 NE3       30.06R
PEARLAND       FAIR      66  50  56 NE6       30.06R
HOUSTON HOOKS  CLOUDY    59  48  67 N3        30.07R
ELLINGTON FLD  MOSUNNY   64  50  59 CALM      30.04R
SUGAR LAND     PTSUNNY   64  52  64 N5        30.06R
*HOUSTON EXEC  CLOUDY    61  54  77 CALM      30.08R
*CLEVELAND MUN   N/A     58  54  85 CALM      30.09R
*WHARTON       CLOUDY    62  50  65 CALM      30.06R
*COLUMBUS      PTSUNNY   59  46  62 CALM      30.07S
*EAGLE LAKE    CLOUDY    63  54  73 NE3       30.06
$$

TXZ214>216-236>238-131500-
THE UPPER TEXAS COAST

CITY           SKY/WX    TMP DP  RH WIND       PRES   REMARKS
*ORANGE        FAIR      64  56  74 N3        30.07R
PORT ARTHUR    FAIR      67  51  56 NE6       30.04S
GALVESTON      PTSUNNY   68  57  68 N9        30.05R
ANGLETON       CLOUDY    65  55  70 NE6       30.04R
*BAY CITY      CLOUDY    65  56  74 NE3       30.04R
PALACIOS         N/A     65  52  62 NE7       30.04R
$$

TXZ229>234-239>247-131500-
TEXAS COASTAL BEND AND RIO GRANDE PLAINS

CITY           SKY/WX    TMP DP  RH WIND       PRES   REMARKS
VICTORIA       CLOUDY    63  52  67 NE6       30.04S
*BEEVILLE      NOT AVBL
ROCKPORT       CLOUDY    69  52  54 NE9       30.02R
*PORT ARANSAS  CLOUDY    68  59  71 N10       30.02S
*PORT LAVACA   CLOUDY    65  54  65 NE6       30.04S
*INGLESIDE     CLOUDY    68  55  63 NE9       30.01S
CORPUS CHRISTI PTSUNNY   67  49  52 N7        30.01S
CORPUS NAS     CLOUDY    69  56  62 N14       30.00S
*ROBSTOWN      CLOUDY    64  45  49 NE7       30.02S
ALICE          CLOUDY    68  44  42 N6        30.02R
KINGSVILLE NAS CLOUDY    68  47  46 MISG      30.01R
COTULLA        CLOUDY    67  36  31 E5        30.04R
LAREDO         CLOUDY    69  37  30 CALM      30.03R
$$

TXZ248>255-131500-
DEEP SOUTH TEXAS

CITY           SKY/WX    TMP DP  RH WIND       PRES   REMARKS
BROWNSVILLE    CLOUDY    69  51  52 NW13      29.97R
PORT ISABEL    CLOUDY    70  52  52 NW12      29.97R
HARLINGEN      CLOUDY    69  49  48 N13       29.98R
*HEBBRONVILLE  CLOUDY    67  38  34 CALM      30.03S
MCALLEN        CLOUDY    69  57  65 N8        30.01R
*WESLACO       CLOUDY    68  53  58 N7        29.99
FALFURRIAS     CLOUDY    70  45  40 N5        30.02R
EDINBURG       CLOUDY    68  49  50 NW3       30.00S
*ZAPATA        CLOUDY    69  44  40 CALM      30.03R
$$

TXZ213>215-236>238-242>244-246-247-251-254-255-131500-
CMAN STATIONS

STATION/POSITION TIME  TEMP    WIND        PRES    WAVE
                       AIR SEA DIR/SP/G            HT/PER
                 (UTC) (F)     (DEG/KT/KT) (MB)    (FT/S)
SABINE PASS      1318   61 76   30/  9/ 11 1018.5
SEA RIM ST PARK  1400   65      40/  7/  9 1017.4
NORTH JETTY/GLS  1318   65 72   40/ 12/ 15 1015.5
EAGLE POINT      1318   65 70   40/ 10/ 11 1016.3
MORGANS POINT    1318   61 78   50/  7/  8 1017.0
PORT O`CONNOR    1318   67 68   30/  9/ 11 1016.1
PORT ARANSAS     1400   67 77  360/ 12/ 14 1015.9
MALAQUITE BEACH  1318      78  340/ 12/ 14 1015.4
BAFFIN BAY       1318   67 72  330/ 10/ 12 1015.9
PORT ISABEL      1318   67 75  340/ 10/ 15 1014.6
$$



USA.gov is the U.S. government's official web portal to all federal, state and local government web resources and services.